FFT4190 KCMH-KMCO

Flight info

Callsign FFT4190
Flight time 1h 51m
Altitude 36000
Route POBSE OHIOS HVQ Q147 BURGG IRQ WHYYT GRNCH5
Aircraft A320/M-SDE3FGHIRWY/LB1

Departure

Time 2026-04-25 17:57
Airport John Glenn Columbus International Airport (KCMH)

Arrival

Time 2026-04-25 19:49
Airport Orlando International Airport (KMCO)
Time Latitude Longitude Altitude Speed Heading
2026-04-25 17:04 39.99958 -82.88464 821 ft 0 kts 205°
2026-04-25 17:40 39.99966 -82.88459 818 ft 4 kts 204°
2026-04-25 17:41 39.99991 -82.88447 819 ft 4 kts 189°
2026-04-25 17:41 40.00013 -82.88448 819 ft 4 kts 118°
2026-04-25 17:41 40.00016 -82.88455 818 ft 0 kts 96°
2026-04-25 17:49 40.00014 -82.88436 818 ft 4 kts 96°
2026-04-25 17:49 40.00011 -82.88398 820 ft 6 kts 96°
2026-04-25 17:49 40.00006 -82.88353 820 ft 5 kts 100°
2026-04-25 17:49 40.00000 -82.88320 818 ft 5 kts 107°
2026-04-25 17:50 39.99980 -82.88229 821 ft 11 kts 99°
2026-04-25 17:50 39.99973 -82.88137 822 ft 9 kts 95°
2026-04-25 17:50 39.99968 -82.88053 821 ft 12 kts 94°
2026-04-25 17:50 39.99952 -82.87947 821 ft 11 kts 117°
2026-04-25 17:51 39.99898 -82.87899 822 ft 8 kts 163°
2026-04-25 17:51 39.99846 -82.87896 823 ft 11 kts 182°
2026-04-25 17:51 39.99739 -82.87905 823 ft 15 kts 184°
2026-04-25 17:51 39.99637 -82.87913 823 ft 14 kts 183°
2026-04-25 17:52 39.99591 -82.87850 824 ft 9 kts 96°
2026-04-25 17:52 39.99590 -82.87825 825 ft 8 kts 95°
2026-04-25 17:52 39.99578 -82.87720 825 ft 7 kts 101°
2026-04-25 17:52 39.99567 -82.87637 825 ft 10 kts 96°
2026-04-25 17:53 39.99562 -82.87553 826 ft 8 kts 95°
2026-04-25 17:53 39.99556 -82.87464 826 ft 13 kts 95°
2026-04-25 17:53 39.99549 -82.87358 825 ft 10 kts 96°
2026-04-25 17:53 39.99507 -82.87296 824 ft 9 kts 167°
2026-04-25 17:54 39.99449 -82.87299 825 ft 7 kts 184°
2026-04-25 17:54 39.99418 -82.87302 825 ft 6 kts 185°
2026-04-25 17:54 39.99361 -82.87309 824 ft 7 kts 186°
2026-04-25 17:54 39.99309 -82.87317 823 ft 8 kts 187°
2026-04-25 17:55 39.99266 -82.87323 823 ft 0 kts 185°
2026-04-25 17:56 39.99245 -82.87326 823 ft 8 kts 185°
2026-04-25 17:56 39.99193 -82.87343 823 ft 7 kts 208°
2026-04-25 17:56 39.99168 -82.87388 823 ft 9 kts 255°
2026-04-25 17:56 39.99173 -82.87506 821 ft 17 kts 274°
2026-04-25 17:57 39.99197 -82.87913 819 ft 80 kts 274°
2026-04-25 17:57 39.99253 -82.88916 817 ft 139 kts 274°
2026-04-25 17:57 39.99332 -82.90314 1134 ft 158 kts 274°
2026-04-25 17:57 39.99374 -82.91286 1629 ft 158 kts 277°
2026-04-25 17:58 39.99479 -82.93187 2574 ft 160 kts 278°
2026-04-25 17:58 39.99571 -82.94726 2901 ft 181 kts 279°
2026-04-25 17:58 39.99677 -82.96468 3177 ft 204 kts 278°
2026-04-25 17:58 39.99810 -82.98414 3415 ft 228 kts 278°
2026-04-25 17:59 39.99968 -83.00576 3786 ft 252 kts 279°
2026-04-25 17:59 39.99998 -83.02932 4408 ft 269 kts 263°
2026-04-25 17:59 39.99276 -83.05239 4979 ft 283 kts 233°
2026-04-25 17:59 39.97719 -83.06815 5853 ft 289 kts 203°
2026-04-25 18:00 39.95745 -83.07228 6704 ft 291 kts 172°
2026-04-25 18:00 39.93858 -83.06328 7498 ft 291 kts 144°
2026-04-25 18:00 39.92200 -83.04806 8335 ft 294 kts 142°
2026-04-25 18:00 39.90556 -83.03263 9152 ft 297 kts 142°
2026-04-25 18:01 39.88849 -83.01655 9955 ft 301 kts 142°
2026-04-25 18:01 39.87144 -83.00052 10442 ft 316 kts 142°
2026-04-25 18:01 39.85293 -82.98320 10674 ft 339 kts 142°
2026-04-25 18:01 39.83323 -82.96489 11086 ft 354 kts 142°
2026-04-25 18:02 39.81291 -82.94612 11753 ft 359 kts 142°
2026-04-25 18:02 39.79242 -82.92724 12461 ft 363 kts 142°
2026-04-25 18:02 39.77164 -82.90815 13170 ft 367 kts 142°
2026-04-25 18:02 39.75066 -82.88887 13859 ft 371 kts 142°
2026-04-25 18:03 39.72950 -82.86941 14467 ft 375 kts 142°
2026-04-25 18:03 39.70814 -82.84975 15116 ft 377 kts 142°
2026-04-25 18:03 39.68660 -82.82995 15746 ft 380 kts 143°
2026-04-25 18:03 39.66489 -82.81000 16359 ft 384 kts 143°
2026-04-25 18:04 39.64300 -82.78987 16962 ft 388 kts 143°
2026-04-25 18:04 39.62090 -82.76955 17544 ft 392 kts 144°
2026-04-25 18:04 39.59855 -82.74903 18152 ft 395 kts 145°
2026-04-25 18:04 39.57629 -82.72867 18662 ft 398 kts 146°
2026-04-25 18:05 39.55360 -82.70797 19199 ft 400 kts 146°
2026-04-25 18:05 39.53077 -82.68714 19720 ft 401 kts 147°
2026-04-25 18:05 39.50789 -82.66625 20219 ft 404 kts 147°
2026-04-25 18:05 39.48454 -82.64570 20700 ft 405 kts 153°
2026-04-25 18:06 39.45917 -82.63023 21173 ft 403 kts 164°
2026-04-25 18:06 39.43214 -82.62118 21645 ft 400 kts 175°
2026-04-25 18:06 39.40437 -82.61869 22132 ft 397 kts 186°
2026-04-25 18:06 39.37688 -82.62126 22620 ft 397 kts 189°
2026-04-25 18:07 39.34931 -82.62415 23125 ft 399 kts 189°
2026-04-25 18:07 39.32161 -82.62698 23601 ft 400 kts 189°
2026-04-25 18:07 39.29377 -82.62980 24002 ft 402 kts 189°
2026-04-25 18:07 39.26617 -82.63256 24390 ft 404 kts 189°
2026-04-25 18:08 39.23774 -82.63535 24789 ft 405 kts 189°
2026-04-25 18:08 39.20998 -82.63809 25164 ft 406 kts 189°
2026-04-25 18:08 39.18167 -82.64092 25545 ft 408 kts 189°
2026-04-25 18:08 39.15335 -82.64382 25915 ft 409 kts 189°
2026-04-25 18:09 39.12480 -82.64676 26284 ft 411 kts 189°
2026-04-25 18:09 39.09629 -82.64968 26653 ft 412 kts 189°
2026-04-25 18:09 39.06762 -82.65259 27014 ft 414 kts 189°
2026-04-25 18:09 39.04855 -82.65449 27253 ft 415 kts 189°
2026-04-25 18:10 39.00994 -82.65836 27729 ft 417 kts 189°
2026-04-25 18:10 38.98096 -82.66131 28074 ft 419 kts 189°
2026-04-25 18:10 38.95179 -82.66427 28409 ft 421 kts 188°
2026-04-25 18:10 38.92249 -82.66722 28737 ft 422 kts 188°
2026-04-25 18:11 38.89349 -82.66975 29044 ft 426 kts 185°
2026-04-25 18:11 38.86372 -82.66643 29345 ft 434 kts 173°
2026-04-25 18:11 38.83458 -82.65477 29639 ft 445 kts 161°
2026-04-25 18:11 38.80747 -82.63473 29924 ft 455 kts 148°
2026-04-25 18:12 38.78391 -82.60694 30172 ft 467 kts 136°
2026-04-25 18:12 38.76481 -82.57288 30401 ft 474 kts 128°
2026-04-25 18:12 38.74668 -82.53741 30697 ft 474 kts 129°
2026-04-25 18:12 38.72868 -82.50207 31042 ft 473 kts 129°
2026-04-25 18:13 38.71073 -82.46680 31384 ft 473 kts 129°
2026-04-25 18:13 38.69271 -82.43154 31721 ft 472 kts 129°
2026-04-25 18:13 38.67474 -82.39652 32060 ft 471 kts 130°
2026-04-25 18:14 38.63884 -82.32682 32715 ft 469 kts 130°
2026-04-25 18:14 38.62078 -82.29179 33049 ft 468 kts 130°
2026-04-25 18:14 38.60287 -82.25707 33384 ft 467 kts 130°
2026-04-25 18:14 38.58526 -82.22295 33713 ft 466 kts 131°
2026-04-25 18:15 38.56735 -82.18828 34020 ft 465 kts 131°
2026-04-25 18:15 38.54948 -82.15374 34297 ft 465 kts 131°
2026-04-25 18:15 38.53163 -82.11929 34519 ft 466 kts 131°
2026-04-25 18:15 38.51365 -82.08465 34731 ft 467 kts 131°
2026-04-25 18:16 38.49566 -82.05002 34945 ft 468 kts 131°
2026-04-25 18:16 38.47764 -82.01537 35141 ft 469 kts 131°
2026-04-25 18:16 38.44137 -81.94571 35496 ft 471 kts 131°
2026-04-25 18:17 38.42319 -81.91080 35665 ft 473 kts 131°
2026-04-25 18:17 38.40520 -81.87628 35850 ft 473 kts 131°
2026-04-25 18:17 38.38494 -81.84375 35919 ft 462 kts 143°
2026-04-25 18:17 38.36070 -81.81785 35921 ft 449 kts 155°
2026-04-25 18:18 38.33383 -81.79847 35919 ft 438 kts 165°
2026-04-25 18:18 38.27674 -81.77729 35917 ft 420 kts 181°
2026-04-25 18:19 38.21924 -81.77628 35919 ft 411 kts 189°
2026-04-25 18:19 38.16188 -81.77907 35915 ft 412 kts 189°
2026-04-25 18:20 38.10457 -81.78198 35913 ft 412 kts 189°
2026-04-25 18:20 38.04714 -81.78487 35906 ft 412 kts 189°
2026-04-25 18:21 37.99013 -81.78765 35904 ft 413 kts 189°
2026-04-25 18:21 37.93277 -81.79043 35902 ft 413 kts 189°
2026-04-25 18:22 37.87541 -81.79324 35905 ft 413 kts 189°
2026-04-25 18:22 37.81780 -81.79603 35902 ft 413 kts 189°
2026-04-25 18:23 37.76034 -81.79889 35901 ft 414 kts 189°
2026-04-25 18:23 37.70276 -81.80172 35898 ft 414 kts 189°
2026-04-25 18:24 37.64509 -81.80447 35901 ft 415 kts 189°
2026-04-25 18:24 37.58730 -81.80723 35897 ft 415 kts 189°
2026-04-25 18:25 37.52986 -81.81005 35900 ft 415 kts 189°
2026-04-25 18:25 37.47207 -81.81287 35897 ft 416 kts 189°
2026-04-25 18:26 37.41375 -81.81566 35901 ft 417 kts 189°
2026-04-25 18:26 37.35615 -81.81842 35921 ft 417 kts 189°
2026-04-25 18:27 37.29804 -81.82124 35938 ft 417 kts 189°
2026-04-25 18:27 37.23991 -81.82404 35957 ft 418 kts 189°
2026-04-25 18:28 37.18174 -81.82687 35973 ft 418 kts 189°
2026-04-25 18:28 37.12344 -81.82968 35984 ft 419 kts 189°
2026-04-25 18:29 37.03629 -81.83381 35982 ft 420 kts 189°
2026-04-25 18:30 36.91933 -81.83930 35965 ft 421 kts 189°
2026-04-25 18:30 36.86068 -81.84205 35948 ft 422 kts 189°
2026-04-25 18:31 36.80188 -81.84484 35934 ft 422 kts 189°
2026-04-25 18:31 36.74342 -81.84765 35941 ft 423 kts 189°
2026-04-25 18:32 36.68451 -81.85046 35946 ft 424 kts 189°
2026-04-25 18:32 36.62546 -81.85323 35946 ft 425 kts 189°
2026-04-25 18:33 36.56641 -81.85602 35939 ft 425 kts 189°
2026-04-25 18:33 36.50723 -81.85884 35928 ft 425 kts 189°
2026-04-25 18:34 36.44813 -81.86158 35914 ft 425 kts 189°
2026-04-25 18:34 36.38887 -81.86434 35906 ft 426 kts 189°
2026-04-25 18:35 36.32963 -81.86712 35899 ft 426 kts 189°
2026-04-25 18:35 36.27031 -81.86990 35895 ft 427 kts 189°
2026-04-25 18:36 36.21127 -81.87269 35890 ft 427 kts 189°
2026-04-25 18:36 36.15180 -81.87546 35887 ft 428 kts 189°
2026-04-25 18:37 36.09229 -81.87829 35891 ft 428 kts 189°
2026-04-25 18:37 36.03271 -81.88105 35892 ft 428 kts 189°
2026-04-25 18:38 35.97301 -81.88377 35897 ft 429 kts 189°
2026-04-25 18:38 35.91365 -81.88653 35896 ft 429 kts 189°
2026-04-25 18:39 35.85398 -81.88935 35899 ft 430 kts 189°
2026-04-25 18:39 35.79412 -81.89211 35892 ft 430 kts 189°
2026-04-25 18:40 35.73426 -81.89481 35890 ft 431 kts 189°
2026-04-25 18:40 35.68440 -81.89709 35876 ft 431 kts 189°
2026-04-25 18:41 35.62442 -81.89991 35888 ft 432 kts 189°
2026-04-25 18:41 35.55461 -81.90310 35893 ft 432 kts 188°
2026-04-25 18:42 35.51433 -81.90492 35902 ft 433 kts 188°
2026-04-25 18:42 35.44396 -81.90813 35902 ft 433 kts 188°
2026-04-25 18:43 35.38358 -81.91095 35900 ft 434 kts 188°
2026-04-25 18:43 35.32315 -81.91371 35896 ft 435 kts 188°
2026-04-25 18:44 35.26292 -81.91648 35888 ft 436 kts 188°
2026-04-25 18:44 35.20224 -81.91920 35879 ft 437 kts 188°
2026-04-25 18:45 35.14150 -81.92193 35863 ft 438 kts 188°
2026-04-25 18:45 35.08056 -81.92473 35868 ft 438 kts 188°
2026-04-25 18:46 35.01987 -81.92933 35874 ft 433 kts 195°
2026-04-25 18:46 34.96011 -81.94025 35872 ft 433 kts 194°
2026-04-25 18:47 34.90044 -81.95095 35872 ft 434 kts 194°
2026-04-25 18:47 34.84068 -81.96158 35871 ft 434 kts 194°
2026-04-25 18:48 34.78075 -81.97218 35873 ft 435 kts 194°
2026-04-25 18:48 34.72129 -81.98282 35872 ft 435 kts 194°
2026-04-25 18:49 34.66132 -81.99356 35879 ft 436 kts 194°
2026-04-25 18:49 34.60128 -82.00428 35881 ft 436 kts 194°
2026-04-25 18:50 34.54123 -82.01500 35884 ft 436 kts 194°
2026-04-25 18:50 34.48113 -82.02574 35883 ft 437 kts 194°
2026-04-25 18:51 34.43112 -82.03463 35886 ft 437 kts 194°
2026-04-25 18:51 34.36067 -82.04716 35895 ft 438 kts 194°
2026-04-25 18:52 34.30033 -82.05782 35899 ft 438 kts 194°
2026-04-25 18:52 34.24000 -82.06845 35900 ft 438 kts 194°
2026-04-25 18:53 34.17963 -82.07912 35899 ft 439 kts 194°
2026-04-25 18:53 34.11909 -82.08981 35904 ft 440 kts 194°
2026-04-25 18:54 34.02859 -82.10579 35902 ft 440 kts 194°
2026-04-25 18:55 33.96797 -82.11647 35894 ft 441 kts 194°
2026-04-25 18:55 33.90721 -82.12707 35893 ft 441 kts 194°
2026-04-25 18:56 33.84643 -82.13770 35882 ft 441 kts 194°
2026-04-25 18:56 33.78569 -82.14832 35887 ft 441 kts 194°
2026-04-25 18:57 33.72495 -82.15890 35890 ft 441 kts 194°
2026-04-25 18:57 33.66332 -82.16363 35888 ft 446 kts 187°
2026-04-25 18:58 33.60150 -82.16580 35888 ft 447 kts 187°
2026-04-25 18:58 33.50829 -82.16920 35893 ft 447 kts 187°
2026-04-25 18:59 33.38388 -82.17362 35885 ft 447 kts 187°
2026-04-25 19:00 33.29024 -82.17677 35861 ft 448 kts 187°
2026-04-25 19:01 33.19703 -82.18013 35861 ft 449 kts 187°
2026-04-25 19:01 33.13461 -82.18242 35866 ft 449 kts 187°
2026-04-25 19:02 33.04072 -82.18574 35871 ft 449 kts 187°
2026-04-25 19:03 32.96772 -82.18827 35868 ft 450 kts 186°
2026-04-25 19:03 32.88421 -82.19113 35872 ft 451 kts 186°
2026-04-25 19:04 32.79003 -82.19446 35881 ft 452 kts 186°
2026-04-25 19:05 32.66435 -82.19895 35886 ft 453 kts 186°
2026-04-25 19:06 32.60131 -82.20115 35886 ft 454 kts 186°
2026-04-25 19:06 32.50646 -82.20444 35893 ft 454 kts 186°
2026-04-25 19:07 32.41157 -82.20768 35890 ft 455 kts 186°
2026-04-25 19:08 32.31650 -82.21101 35888 ft 456 kts 186°
2026-04-25 19:09 32.20022 -82.21503 35894 ft 457 kts 186°
2026-04-25 19:10 32.09431 -82.21866 35890 ft 457 kts 186°
2026-04-25 19:10 32.03072 -82.22091 35884 ft 457 kts 186°
2026-04-25 19:11 31.96702 -82.22311 35890 ft 458 kts 186°
2026-04-25 19:11 31.90366 -82.22525 35891 ft 458 kts 186°
2026-04-25 19:12 31.83970 -82.22742 35890 ft 459 kts 186°
2026-04-25 19:12 31.77586 -82.22964 35899 ft 459 kts 186°
2026-04-25 19:13 31.71179 -82.23186 35899 ft 460 kts 185°
2026-04-25 19:13 31.64777 -82.23388 35899 ft 460 kts 185°
2026-04-25 19:14 31.58412 -82.23617 35899 ft 460 kts 185°
2026-04-25 19:14 31.51985 -82.23842 35900 ft 461 kts 185°
2026-04-25 19:15 31.45571 -82.24066 35900 ft 461 kts 185°
2026-04-25 19:15 31.39151 -82.24285 35906 ft 462 kts 185°
2026-04-25 19:16 31.32721 -82.24503 35906 ft 462 kts 185°
2026-04-25 19:16 31.26296 -82.24718 35906 ft 462 kts 185°
2026-04-25 19:17 31.19859 -82.24934 35908 ft 463 kts 185°
2026-04-25 19:17 31.13421 -82.25153 35914 ft 463 kts 185°
2026-04-25 19:18 31.07009 -82.25370 35930 ft 464 kts 185°
2026-04-25 19:18 31.00564 -82.25668 35954 ft 462 kts 190°
2026-04-25 19:19 30.94184 -82.26603 35980 ft 462 kts 191°
2026-04-25 19:19 30.87811 -82.27545 35999 ft 462 kts 190°
2026-04-25 19:20 30.81431 -82.28480 36003 ft 462 kts 190°
2026-04-25 19:20 30.75049 -82.29421 36006 ft 462 kts 190°
2026-04-25 19:21 30.68666 -82.30362 36017 ft 463 kts 190°
2026-04-25 19:21 30.59029 -82.31356 36034 ft 467 kts 179°
2026-04-25 19:22 30.52585 -82.30220 36037 ft 469 kts 172°
2026-04-25 19:23 30.42989 -82.28271 36050 ft 460 kts 172°
2026-04-25 19:23 30.36689 -82.27005 35888 ft 460 kts 172°
2026-04-25 19:23 30.33583 -82.26383 35635 ft 458 kts 172°
2026-04-25 19:24 30.30446 -82.25755 35324 ft 455 kts 172°
2026-04-25 19:24 30.27333 -82.25131 34771 ft 453 kts 172°
2026-04-25 19:24 30.21137 -82.23893 33633 ft 450 kts 172°
2026-04-25 19:25 30.15004 -82.22665 32590 ft 444 kts 172°
2026-04-25 19:25 30.11969 -82.22063 32077 ft 441 kts 172°
2026-04-25 19:25 30.08953 -82.21467 31569 ft 438 kts 172°
2026-04-25 19:26 30.05959 -82.20876 31071 ft 435 kts 172°
2026-04-25 19:26 30.02985 -82.20292 30584 ft 433 kts 172°
2026-04-25 19:26 30.00065 -82.19718 30128 ft 429 kts 172°
2026-04-25 19:26 29.97127 -82.19138 29573 ft 427 kts 172°
2026-04-25 19:27 29.94213 -82.18560 29116 ft 422 kts 172°
2026-04-25 19:27 29.93233 -82.18366 28958 ft 420 kts 172°
2026-04-25 19:27 29.88482 -82.17426 28206 ft 412 kts 172°
2026-04-25 19:27 29.85673 -82.16868 27770 ft 408 kts 172°
2026-04-25 19:28 29.83834 -82.16501 27484 ft 405 kts 172°
2026-04-25 19:28 29.81067 -82.15948 27036 ft 401 kts 172°
2026-04-25 19:28 29.78322 -82.15401 26599 ft 398 kts 172°
2026-04-25 19:28 29.75609 -82.14859 26151 ft 395 kts 172°
2026-04-25 19:29 29.72905 -82.14320 25701 ft 392 kts 172°
2026-04-25 19:29 29.70228 -82.13790 25250 ft 390 kts 172°
2026-04-25 19:29 29.66691 -82.13089 24627 ft 388 kts 172°
2026-04-25 19:29 29.64902 -82.12734 24329 ft 387 kts 172°
2026-04-25 19:30 29.62246 -82.12206 23842 ft 386 kts 172°
2026-04-25 19:30 29.59637 -82.11686 23360 ft 385 kts 172°
2026-04-25 19:30 29.57005 -82.11165 22847 ft 382 kts 172°
2026-04-25 19:30 29.54391 -82.10648 22386 ft 379 kts 172°
2026-04-25 19:31 29.51797 -82.10135 21934 ft 377 kts 172°
2026-04-25 19:31 29.49219 -82.09625 21481 ft 375 kts 172°
2026-04-25 19:31 29.46656 -82.09119 21035 ft 373 kts 172°
2026-04-25 19:31 29.44108 -82.08614 20598 ft 371 kts 172°
2026-04-25 19:32 29.41569 -82.08111 20169 ft 370 kts 173°
2026-04-25 19:32 29.39041 -82.07608 19716 ft 368 kts 173°
2026-04-25 19:32 29.36516 -82.07110 19289 ft 367 kts 173°
2026-04-25 19:32 29.34853 -82.06783 19000 ft 366 kts 173°
2026-04-25 19:33 29.31535 -82.06068 18427 ft 367 kts 167°
2026-04-25 19:33 29.29148 -82.05002 17973 ft 369 kts 154°
2026-04-25 19:33 29.26906 -82.03584 17569 ft 366 kts 153°
2026-04-25 19:33 29.24680 -82.02172 17157 ft 364 kts 153°
2026-04-25 19:34 29.22470 -82.00771 16732 ft 362 kts 153°
2026-04-25 19:34 29.20266 -81.99379 16317 ft 361 kts 153°
2026-04-25 19:34 29.18062 -81.97994 15907 ft 360 kts 153°
2026-04-25 19:34 29.15873 -81.96620 15497 ft 358 kts 153°
2026-04-25 19:35 29.13690 -81.95250 15085 ft 357 kts 153°
2026-04-25 19:35 29.11507 -81.93883 14677 ft 356 kts 153°
2026-04-25 19:35 29.09337 -81.92525 14271 ft 355 kts 153°
2026-04-25 19:35 29.07222 -81.91138 13864 ft 355 kts 147°
2026-04-25 19:36 29.05326 -81.89315 13435 ft 355 kts 138°
2026-04-25 19:36 29.03533 -81.87386 13016 ft 353 kts 138°
2026-04-25 19:36 29.01750 -81.85466 12602 ft 351 kts 138°
2026-04-25 19:36 28.99972 -81.83555 12171 ft 348 kts 138°
2026-04-25 19:37 28.98237 -81.81644 11756 ft 346 kts 133°
2026-04-25 19:37 28.96735 -81.79504 11383 ft 343 kts 128°
2026-04-25 19:37 28.95323 -81.77401 11275 ft 332 kts 128°
2026-04-25 19:37 28.93941 -81.75344 11134 ft 321 kts 128°
2026-04-25 19:38 28.92596 -81.73349 10913 ft 314 kts 128°
2026-04-25 19:38 28.91264 -81.71378 10605 ft 311 kts 129°
2026-04-25 19:38 28.89943 -81.69423 10279 ft 309 kts 128°
2026-04-25 19:38 28.88637 -81.67486 9984 ft 305 kts 128°
2026-04-25 19:39 28.87339 -81.65563 9559 ft 306 kts 128°
2026-04-25 19:39 28.86051 -81.63660 9257 ft 301 kts 129°
2026-04-25 19:39 28.84798 -81.61809 8698 ft 296 kts 129°
2026-04-25 19:39 28.83542 -81.59956 8032 ft 293 kts 129°
2026-04-25 19:40 28.82297 -81.58121 7342 ft 292 kts 129°
2026-04-25 19:40 28.81074 -81.56316 7134 ft 280 kts 129°
2026-04-25 19:40 28.79911 -81.54594 7049 ft 268 kts 129°
2026-04-25 19:40 28.78809 -81.52934 6929 ft 257 kts 127°
2026-04-25 19:41 28.77814 -81.51265 6695 ft 252 kts 124°
2026-04-25 19:41 28.76883 -81.49604 6483 ft 246 kts 123°
2026-04-25 19:41 28.75982 -81.47967 6271 ft 240 kts 123°
2026-04-25 19:41 28.75398 -81.46906 6158 ft 236 kts 124°
2026-04-25 19:42 28.74242 -81.44817 6033 ft 235 kts 124°
2026-04-25 19:42 28.73428 -81.43195 5888 ft 237 kts 110°
2026-04-25 19:42 28.72952 -81.41415 5685 ft 232 kts 115°
2026-04-25 19:42 28.71916 -81.40106 5490 ft 221 kts 153°
2026-04-25 19:43 28.70556 -81.39344 5307 ft 216 kts 156°
2026-04-25 19:43 28.69192 -81.38622 5054 ft 217 kts 156°
2026-04-25 19:43 28.67829 -81.37868 4773 ft 218 kts 154°
2026-04-25 19:43 28.66474 -81.37074 4485 ft 220 kts 153°
2026-04-25 19:44 28.65118 -81.36248 4177 ft 221 kts 152°
2026-04-25 19:44 28.63766 -81.35400 3883 ft 222 kts 152°
2026-04-25 19:44 28.62427 -81.34543 3590 ft 222 kts 151°
2026-04-25 19:44 28.61079 -81.33668 3307 ft 223 kts 151°
2026-04-25 19:45 28.59665 -81.32947 2954 ft 224 kts 169°
2026-04-25 19:45 28.58136 -81.32834 2683 ft 223 kts 180°
2026-04-25 19:45 28.56611 -81.32822 2395 ft 213 kts 180°
2026-04-25 19:45 28.55183 -81.32809 2116 ft 201 kts 180°
2026-04-25 19:46 28.53814 -81.32794 1855 ft 190 kts 179°
2026-04-25 19:46 28.52541 -81.32781 1627 ft 176 kts 179°
2026-04-25 19:46 28.51420 -81.32769 1426 ft 162 kts 179°
2026-04-25 19:46 28.50348 -81.32757 1209 ft 148 kts 179°
2026-04-25 19:47 28.49338 -81.32746 1023 ft 143 kts 179°
2026-04-25 19:47 28.48665 -81.32737 896 ft 140 kts 178°
2026-04-25 19:47 28.47696 -81.32727 717 ft 138 kts 180°
2026-04-25 19:47 28.46737 -81.32719 540 ft 138 kts 182°
2026-04-25 19:48 28.45780 -81.32720 342 ft 137 kts 179°
2026-04-25 19:48 28.44850 -81.32702 181 ft 136 kts 179°
2026-04-25 19:48 28.43913 -81.32677 101 ft 124 kts 182°
2026-04-25 19:48 28.43213 -81.32680 104 ft 78 kts 181°
2026-04-25 19:49 28.42851 -81.32674 103 ft 25 kts 178°
2026-04-25 19:49 28.42747 -81.32669 100 ft 20 kts 176°
2026-04-25 19:49 28.42621 -81.32596 100 ft 10 kts 126°
2026-04-25 19:49 28.42606 -81.32570 99 ft 0 kts 121°
2026-04-25 19:51 28.42606 -81.32569 99 ft 1 kts 121°
2026-04-25 19:51 28.42573 -81.32510 101 ft 12 kts 122°
2026-04-25 19:52 28.42535 -81.32438 101 ft 10 kts 121°
2026-04-25 19:52 28.42501 -81.32375 101 ft 8 kts 121°
2026-04-25 19:52 28.42476 -81.32326 102 ft 6 kts 120°
2026-04-25 19:52 28.42460 -81.32294 103 ft 5 kts 120°
2026-04-25 19:53 28.42438 -81.32251 103 ft 5 kts 120°
2026-04-25 19:53 28.42424 -81.32224 105 ft 3 kts 120°
2026-04-25 19:53 28.42403 -81.32181 106 ft 6 kts 119°
2026-04-25 19:53 28.42383 -81.32142 106 ft 5 kts 120°
2026-04-25 19:54 28.42363 -81.32102 105 ft 6 kts 120°
2026-04-25 19:54 28.42348 -81.32055 105 ft 7 kts 99°
2026-04-25 19:54 28.42347 -81.32001 105 ft 7 kts 88°
2026-04-25 19:54 28.42348 -81.31952 104 ft 14 kts 89°
2026-04-25 19:55 28.42364 -81.31844 103 ft 10 kts 45°
2026-04-25 19:55 28.42429 -81.31832 102 ft 9 kts 360°
2026-04-25 19:55 28.42491 -81.31832 102 ft 8 kts 359°
2026-04-25 19:55 28.42551 -81.31833 102 ft 11 kts 359°
2026-04-25 19:56 28.42630 -81.31834 102 ft 11 kts 359°
2026-04-25 19:56 28.42703 -81.31835 102 ft 11 kts 359°
2026-04-25 19:56 28.42807 -81.31836 100 ft 16 kts 360°
2026-04-25 19:56 28.42918 -81.31837 100 ft 16 kts 359°
2026-04-25 19:57 28.43022 -81.31838 99 ft 14 kts 359°
2026-04-25 19:57 28.43115 -81.31839 100 ft 13 kts 359°
2026-04-25 19:57 28.43201 -81.31840 99 ft 12 kts 359°
2026-04-25 19:57 28.43284 -81.31841 97 ft 11 kts 360°
2026-04-25 19:58 28.43359 -81.31842 97 ft 10 kts 359°
2026-04-25 19:58 28.43428 -81.31843 99 ft 11 kts 360°
2026-04-25 19:58 28.43491 -81.31843 100 ft 8 kts 359°
2026-04-25 19:58 28.43543 -81.31844 101 ft 7 kts 359°
2026-04-25 19:59 28.43589 -81.31845 101 ft 6 kts 359°
2026-04-25 19:59 28.43644 -81.31845 100 ft 8 kts 360°
2026-04-25 19:59 28.43696 -81.31845 101 ft 7 kts 360°
2026-04-25 19:59 28.43756 -81.31846 101 ft 11 kts 360°
2026-04-25 20:00 28.43813 -81.31842 103 ft 6 kts 14°
2026-04-25 20:00 28.43826 -81.31836 103 ft 6 kts 29°
2026-04-25 20:00 28.43848 -81.31772 103 ft 7 kts 86°
2026-04-25 20:00 28.43850 -81.31718 102 ft 7 kts 89°
2026-04-25 20:01 28.43846 -81.31604 101 ft 8 kts 95°
2026-04-25 20:01 28.43840 -81.31538 99 ft 9 kts 97°
2026-04-25 20:01 28.43825 -81.31472 101 ft 9 kts 121°
2026-04-25 20:02 28.43775 -81.31434 99 ft 8 kts 156°
2026-04-25 20:02 28.43728 -81.31410 99 ft 7 kts 153°
2026-04-25 20:02 28.43702 -81.31390 100 ft 2 kts 140°
2026-04-25 20:02 28.43686 -81.31358 102 ft 5 kts 107°
2026-04-25 20:03 28.43676 -81.31328 102 ft 1 kts 142°
2026-04-25 20:03 28.43673 -81.31329 102 ft 0 kts 166°
2026-04-25 20:03 28.43660 -81.31325 101 ft 3 kts 166°
2026-04-25 20:03 28.43631 -81.31316 102 ft 9 kts 165°
2026-04-25 20:04 28.43589 -81.31303 102 ft 2 kts 163°